Regional Weather Roundup
Issued by NWS

Home | Current Version | Previous Version | Text Only | Print | Product List | Glossary On
Versions: 1 2 3 4 5 6 7 8 9 10 11 12 13 14 15 16 17 18 19 20 21 22 23 24 25 26 27 28 29 30 31 32 33 34 35 36 37 38 39 40 41 42 43 44 45 46 47 48 49 50
014
ASUS43 KOAX 280510
RWRNE

WEATHER ROUNDUP FOR NEBRASKA
NATIONAL WEATHER SERVICE OMAHA NE
1200 AM CDT THU JUL 28 2016

NOTES: SATELLITE DATA IS BEING USED TO AUGMENT CLOUD COVER ABOVE
       12000 FEET.
       "FAIR" INDICATES FEW OR NO CLOUDS BELOW 12,000 FEET WITH NO
       SIGNIFICANT WEATHER AND/OR OBSTRUCTIONS TO VISIBILITY.

  * THESE STATIONS DO NOT REPORT WEATHER SUCH AS RAIN...SNOW OR FOG.

NEZ001>004-019>022-054>056-280600-
NEBRASKA PANHANDLE

CITY           SKY/WX    TMP DP  RH WIND       PRES   REMARKS
SCOTTSBLUFF    CLOUDY    69  61  75 E21G36    30.15F
ALLIANCE       CLOUDY    66  60  81 E10       30.17F
CHADRON        CLOUDY    70  61  73 S14       30.14F
KIMBALL        CLOUDY    60  59  96 CALM      30.24
SIDNEY         MOCLDY    67  62  84 E7        30.21R
$$

NEZ057>060-069>072-079>082-280600-
SOUTHWEST NEBRASKA

CITY           SKY/WX    TMP DP  RH WIND       PRES   REMARKS
NORTH PLATTE   CLEAR     67  62  84 NE12      30.12F
IMPERIAL       PTCLDY    74  66  76 E10       30.12S
LEXINGTON      CLEAR     67  64  87 NE6       30.11S
MCCOOK         CLOUDY    73  68  84 W8        30.10R
OGALLALA       CLEAR     71  56  61 E7        30.15R
$$

NEZ005>010-023>029-035>040-094-280600-
NORTH CENTRAL NEBRASKA

CITY           SKY/WX    TMP DP  RH WIND       PRES   REMARKS
VALENTINE      CLEAR     60  57  89 MISG      30.13S
AINSWORTH      CLOUDY    61  59  93 W8        30.11S
BROKEN BOW     CLEAR     63  61  93 N7        30.11F
O`NEILL        CLOUDY    66  61  82 CALM      30.07F
ORD            PTCLDY    65  61  87 W3        30.09F
THEDFORD       PTCLDY    64  60  88 CALM      30.15F
$$

NEZ041-046>049-061>064-073>077-083>087-280600-
SOUTH CENTRAL NEBRASKA

CITY           SKY/WX    TMP DP  RH WIND       PRES   REMARKS
GRAND ISLAND   CLEAR     70  66  87 N3        30.06F
AURORA         CLEAR     68  67  96 N5        30.05S
HASTINGS       CLEAR     70  66  87 N5        30.07F
HEBRON         CLOUDY    74  67  80 N3        30.03F
HOLDREGE       PTCLDY    71  67  89 N7        30.09R
KEARNEY *      CLEAR     70  12  11 N9        30.09S
YORK           PTCLDY    70  68  94 N3        30.04F
$$

NEZ011>018-030>034-042>045-280600-
NORTHEAST NEBRASKA

CITY           SKY/WX    TMP DP  RH WIND       PRES   REMARKS
NORFOLK        MOCLDY    68  63  84 W8        30.04S
ALBION         MOCLDY    68  61  77 NW8       30.07F
BLAIR          PTCLDY    77  66  70 NW10G16   30.00S
FREMONT        CLOUDY    73  64  73 N5        30.01S
TEKAMAH        CLOUDY    74  64  71 N5        29.99S
WAYNE          CLOUDY    66  64  93 N3        30.03R
$$

NEZ050>053-065>068-078-088>093-280600-
SOUTHEAST NEBRASKA

CITY           SKY/WX    TMP DP  RH WIND       PRES   REMARKS
LINCOLN        CLEAR     76  68  76 N5        30.01S
OMAHA EPPLEY   PTCLDY    76  70  82 E3        29.98S
BEATRICE       CLOUDY    72  68  89 N3        30.01S
FALLS CITY     CLEAR     73  71  93 NW6       29.97S
NEBRASKA CITY  CLEAR     74  74 100 CALM      29.99F
PLATTSMOUTH    PTCLDY    73  70  90 CALM      29.99F
$$

NEZ044-045-051>053-067-280600-
OMAHA AREA

CITY           SKY/WX    TMP DP  RH WIND       PRES   REMARKS
OMAHA EPPLEY   PTCLDY    76  70  82 E3        29.98S
BLAIR          PTCLDY    77  66  70 NW10G16   30.00S
FREMONT        CLOUDY    73  64  73 N5        30.01S
MILLARD        CLOUDY    75  69  82 CALM      29.99S
OFFUTT AFB     MOCLDY    71  70  96 S1        29.97F
PLATTSMOUTH    PTCLDY    73  70  90 CALM      29.99F
WAHOO          FAIR      73  68  84 NW3       30.00S
$$




USA.gov is the U.S. government's official web portal to all federal, state and local government web resources and services.